Location: Columbia
(38.9520°N, 92.3340°W)
Time: 17:20:30
(UTC-05:00)

Daily predictions for brighter satellites

Satellite Brightness Start Highest point End
(mag) Time Altitude Azimuth Time Altitude Azimuth Time Altitude Azimuth
Cosmos 1766 3.6 19:16:59 10° SSE 19:20:43 43° E 19:24:31 10° NNE
Cosmos-2242 4.4 19:17:54 10° SE 19:20:57 19° E 19:24:01 10° NE
BREEZE-M DEB (TANK) 3.9 19:20:05 10° WNW 19:23:21 74° SW 19:33:39 10° SE
Cosmos 2233 Rocket 4.3 19:19:39 10° S 19:25:56 78° W 19:32:18 10° N
Cosmos 1452 Rocket 4.3 19:21:41 10° N 19:26:19 30° ENE 19:30:55 10° SE
SL-16 R/B 2.2 19:23:23 10° SSW 19:29:02 77° ESE 19:34:45 10° NNE
NOSS 3-2 (A) 3.4 19:23:07 10° SSW 19:29:05 75° ESE 19:35:37 10° NE
FREGAT/IRIS 3.3 19:28:03 10° SE 19:30:53 34° ENE 19:33:44 10° N
ATLAS CENTAUR R/B 1.8 19:28:56 10° NW 19:33:04 62° WSW 19:36:51 10° SSE
SKYMED 2 4.1 19:29:21 10° N 19:33:40 65° WNW 19:37:57 10° SSW
Cosmos 1408 Rocket 4.0 19:34:10 10° N 19:38:15 38° ENE 19:42:17 10° SSE
Cosmos 1437 3.4 19:37:19 10° NNW 19:40:32 61° W 19:43:45 10° S
Cosmos 1544 4.4 19:38:29 10° SE 19:41:18 21° E 19:44:08 10° NE
METEOR-M 4.3 19:36:54 10° SE 19:42:03 51° ENE 19:47:13 10° N
Cosmos 1378 3.0 19:42:01 10° N 19:45:46 81° E 19:49:30 10° S
Cosmos 1953 2.7 19:42:36 10° SSE 19:46:18 38° E 19:50:01 10° NNE
Cosmos 1805 3.6 19:47:20 10° SSE 19:51:03 43° E 19:54:48 10° NNE
H-2A R/B 4.3 19:50:10 16° E 19:51:29 19° ENE 19:54:14 10° NNE
Meteor 1-28 Rocket 3.2 19:48:52 10° N 19:52:37 84° W 19:56:19 10° SSW
FENGYUN 3A 4.4 19:48:42 10° SE 19:53:25 32° ENE 19:58:10 10° N
Okean 3 Rocket 4.3 19:49:06 10° NNW 19:53:34 59° W 19:58:01 10° S
SAR-Lupe-4 4.1 19:50:04 10° S 19:53:35 60° WSW 19:57:08 10° NNW
Cosmos 2278 Rocket 4.0 19:49:40 10° NW 19:54:41 34° WSW 19:59:42 10° SSW
Resurs 1-3 4.0 19:50:48 10° SE 19:54:55 42° ENE 19:59:03 10° N
Resurs 01 Rocket 1.7 19:51:25 10° SSE 19:55:45 56° ENE 20:00:08 10° N
ASTEX 1 4.1 19:54:41 10° NNE 19:58:58 29° E 20:03:11 10° SSE
Abrixas 3.2 19:56:22 10° SSW 19:59:06 33° SE 20:00:02 26° ESE
Cosmos 2297 4.2 19:55:25 10° NNW 20:01:01 64° WSW 20:06:34 10° S
Cosmos 1346 4.1 19:58:44 10° NNE 20:01:18 25° ENE 20:01:22 25° E
NOSS 3-3 (A) 4.5 19:55:13 10° NNW 20:02:45 82° ENE 20:10:44 10° SE
NOSS 3-3 (C) 4.5 19:55:19 10° NNW 20:02:51 81° ENE 20:10:50 10° SE
CENTAUR R/B 3.3 19:58:51 10° SSE 20:03:44 27° ESE 20:09:01 10° NE
Spot 2 Rocket 3.4 19:59:24 10° SSE 20:04:25 73° ENE 20:09:28 10° N
Cosmos 1269 Rocket 4.3 19:59:44 10° S 20:04:40 42° ESE 20:09:37 10° NNE
Cosmos 1048 Rocket 4.5 20:01:44 10° SSE 20:06:35 37° ESE 20:11:23 10° NE
Helios 1A 2.9 20:02:26 10° SSE 20:06:35 66° ENE 20:10:47 10° N
Cosmos 1743 Rocket 4.1 20:02:31 10° N 20:06:40 37° ENE 20:09:33 17° SE
NOSS 3-2 (C) 3.7 20:01:24 10° SW 20:07:26 75° NW 20:14:03 10° NNE
Cosmos 1943 4.0 20:07:53 10° SSE 20:12:30 27° ESE 20:17:07 10° NE
Cosmos 2369 Rocket 3.4 20:08:21 10° N 20:12:52 24° NE 20:14:17 22° ENE
Cosmos 1470 3.5 20:13:51 29° E 20:13:51 29° E 20:16:59 10° NNE
Cosmos 724 4.2 20:10:15 10° SSW 20:16:09 82° ESE 20:22:15 10° NNE
Cosmos 1943 Rocket 4.1 20:14:14 10° NNE 20:16:13 12° NE 20:16:39 12° NE
Cosmos 1603 3.6 20:10:43 10° SSW 20:16:24 71° ESE 20:22:08 10° NNE
SJ-6B 4.3 20:13:16 10° SSW 20:16:59 39° W 20:20:49 10° NNW
GPS 2-04 Rocket1 3.6 20:16:24 10° SW 20:19:24 27° SSE 20:19:40 27° SSE
Nadezhda 4 Rocket 4.0 20:15:13 10° N 20:21:27 62° E 20:27:34 10° SSE
GP-B 4.2 20:20:38 10° NNE 20:23:34 27° ENE 20:23:34 27° ENE
HJ-1C 4.3 20:23:41 10° S 20:26:56 49° W 20:30:13 10° NNW
Cosmos 1092 Rocket 4.1 20:22:24 10° N 20:28:26 51° E 20:32:27 21° SSE
Cosmos 1758 3.9 20:24:35 10° SSW 20:28:36 59° W 20:32:40 10° N
ISS -2.4 20:31:05 10° SSW 20:33:17 35° S 20:33:17 35° S
Cosmos 1674 2.7 20:32:51 10° N 20:36:37 57° ENE 20:36:37 57° ENE
FengYun 1-2 T 4.4 20:31:49 10° S 20:37:20 75° WSW 20:42:49 10° NNW
OAO 3 Rocket 3.5 20:34:58 10° W 20:39:37 53° S 20:40:37 44° SE
Cosmos 1634 Rocket 4.0 20:36:01 10° SSE 20:42:02 53° E 20:48:03 10° NNE
USA 215 3.6 20:35:41 10° NE 20:42:09 66° NW 20:48:35 10° WSW
Cosmos 2026 Rocket 4.4 20:37:14 10° N 20:42:48 36° ENE 20:42:57 36° E
ASTRO E2 4.2 20:39:42 10° WSW 20:43:02 25° S 20:43:08 24° S
ALOS 2.3 20:42:33 18° S 20:46:03 77° WSW 20:50:44 10° NNW
Helios 1B rocket 4.1 20:44:43 10° N 20:48:27 34° WNW 20:52:10 10° SW
ERS-1 Rocket 3.9 20:55:08 32° NE 20:55:08 32° NE 20:58:31 10° N
SeaSat 1 2.3 20:51:47 10° NNE 20:56:44 71° ESE 21:01:39 10° SSW
CZ-4B DEB 3.9 20:57:05 42° W 20:57:06 42° W 21:00:14 10° NNW
ATLAS 5 CENTAUR R/B 3.6 20:52:57 10° WSW 20:57:16 32° NW 21:01:55 10° NNE
Atlas Centaur 2 4.5 20:56:08 10° WSW 21:02:28 24° SSW 21:06:05 17° S
Cosmos 2195 Rocket 4.4 20:58:24 10° N 21:04:42 64° E 21:05:32 58° ESE
CZ-2D R/B 4.3 21:09:15 43° WSW 21:09:36 44° W 21:13:21 10° NNW
Cosmos 2151 4.4 21:07:48 10° N 21:09:57 29° N 21:09:57 29° N
Cosmos 1842 Rocket 4.5 21:09:30 10° SSW 21:13:40 46° W 21:17:52 10° N
Cosmos 1500 Rocket 4.4 21:11:43 10° NNW 21:15:59 50° W 21:16:35 46° WSW
SL-8 R/B 4.2 21:15:43 10° WSW 21:20:05 57° NW 21:20:05 57° NW
Cosmos 839 Rocket 4.0 21:16:48 10° NNW 21:24:23 77° ENE 21:24:46 74° E
Cosmos 1627 Rocket 4.4 21:22:51 10° N 21:29:05 84° W 21:29:33 77° SSW
Gbstr 26 Del rocket 4.3 21:25:40 10° SW 21:28:30 40° WSW 21:28:30 40° WSW
CENTAUR R/B 3.2 21:47:59 10° SW 21:53:52 51° NW 22:00:32 10° NNE
Cosmos 1943 4.3 21:51:03 10° SW 21:56:18 40° WNW 22:01:35 10° N
Cosmos 2369 Rocket 3.2 21:51:42 10° NNW 21:56:07 44° WNW 21:56:07 44° WNW
Cosmos 1943 Rocket 3.6 21:55:19 10° NNW 21:58:11 31° NNW 21:58:11 31° NNW
